TimeCST,TemperatureF,Dew PointF,Humidity,Sea Level PressureIn,VisibilityMPH,Wind Direction,Wind SpeedMPH,Gust SpeedMPH,PrecipitationIn,Events,Conditions,WindDirDegrees,DateUTC
12:53 AM,24.1,8.1,51,30.26,10.0,North,6.9,-,N/A,,Overcast,10,2013-01-25 06:53:00
1:53 AM,24.1,9.0,53,30.24,10.0,Calm,Calm,-,N/A,,Overcast,0,2013-01-25 07:53:00
2:53 AM,24.1,8.1,51,30.22,10.0,Calm,Calm,-,N/A,,Overcast,0,2013-01-25 08:53:00
3:13 AM,23.0,8.6,54,30.18,10.0,Calm,Calm,-,N/A,,Scattered Clouds,0,2013-01-25 09:13:00
3:53 AM,19.9,8.1,60,30.20,10.0,Calm,Calm,-,N/A,,Clear,0,2013-01-25 09:53:00
4:53 AM,21.0,10.9,65,30.19,10.0,SW,3.5,-,N/A,,Clear,220,2013-01-25 10:53:00
5:53 AM,18.0,10.0,71,30.21,10.0,Calm,Calm,-,N/A,,Clear,0,2013-01-25 11:53:00
6:53 AM,14.0,8.1,77,30.22,10.0,SSW,3.5,-,N/A,,Clear,210,2013-01-25 12:53:00
7:53 AM,12.9,7.0,77,30.25,10.0,Calm,Calm,-,N/A,,Clear,0,2013-01-25 13:53:00
8:53 AM,23.0,12.0,63,30.23,10.0,SW,4.6,-,N/A,,Clear,220,2013-01-25 14:53:00
9:53 AM,30.9,12.9,47,30.23,10.0,WNW,10.4,-,N/A,,Clear,290,2013-01-25 15:53:00
10:53 AM,34.0,14.0,44,30.25,10.0,WNW,8.1,-,N/A,,Clear,300,2013-01-25 16:53:00
11:53 AM,39.0,16.0,39,30.23,10.0,NNW,5.8,-,N/A,,Clear,340,2013-01-25 17:53:00
12:53 PM,42.1,17.1,37,30.20,10.0,NNW,4.6,-,N/A,,Clear,340,2013-01-25 18:53:00
1:53 PM,45.0,19.0,36,30.19,10.0,West,4.6,-,N/A,,Clear,260,2013-01-25 19:53:00
2:53 PM,46.9,19.9,34,30.19,10.0,West,6.9,-,N/A,,Clear,260,2013-01-25 20:53:00
3:53 PM,48.0,19.9,33,30.20,10.0,West,8.1,-,N/A,,Clear,270,2013-01-25 21:53:00
4:53 PM,44.1,19.9,38,30.20,10.0,Calm,Calm,-,N/A,,Clear,0,2013-01-25 22:53:00
5:53 PM,37.9,21.0,51,30.21,10.0,Calm,Calm,-,N/A,,Clear,0,2013-01-25 23:53:00
6:53 PM,30.9,21.0,67,30.24,10.0,Calm,Calm,-,N/A,,Clear,0,2013-01-26 00:53:00
7:53 PM,30.0,19.0,64,30.25,10.0,Calm,Calm,-,N/A,,Clear,0,2013-01-26 01:53:00
8:53 PM,25.0,17.1,72,30.27,10.0,Calm,Calm,-,N/A,,Clear,0,2013-01-26 02:53:00
9:53 PM,24.1,18.0,77,30.27,10.0,NNW,3.5,-,N/A,,Clear,330,2013-01-26 03:53:00
10:53 PM,24.1,18.0,77,30.27,10.0,Calm,Calm,-,N/A,,Clear,0,2013-01-26 04:53:00
11:53 PM,24.1,18.0,77,30.27,10.0,Calm,Calm,-,N/A,,Clear,0,2013-01-26 05:53:00